EW7349 Weather Reports


time (UTC)temp
C
wind
direction
speed
KPH
gust
KPH
rain 1hr
cm
rain 24hr
cm
rain mn
cm
humidity
%
barometer
mb
20260502220628 15 122 1.6 4.8 0.00 0.00 0.00 41 1011.4
20260502215900 15 306 1.6 6.4 0.00 0.00 0.00 40 1011.5
20260502215357 15 59 3.2 6.4 0.00 0.00 0.00 41 1011.4
20260502214900 15 16 3.2 12.9 0.00 0.00 0.00 38 1011.4
20260502214352 15 306 4.8 12.9 0.00 0.00 0.00 38 1011.5
20260502214106 15 355 1.6 11.3 0.00 0.00 0.00 38 1011.4
20260502213342 15 239 1.6 6.4 0.00 0.00 0.00 40 1011.3
20260502213053 15 123 3.2 12.9 0.00 0.00 0.00 39 1011.3
20260502212328 15 77 4.8 12.9 0.00 0.00 0.00 38 1011.3
20260502211822 15 92 4.8 12.9 0.00 0.00 0.00 40 1011.2
20260502211316 15 150 3.2 11.3 0.00 0.00 0.00 39 1011.1
20260502211036 15 116 3.2 11.3 0.00 0.00 0.00 40 1011.2
20260502210304 15 278 3.2 9.7 0.00 0.00 0.00 38 1011.2
20260502205758 15 308 3.2 12.9 0.00 0.00 0.00 39 1011.3
20260502205252 16 309 3.2 14.5 0.00 0.00 0.00 37 1011.3
20260502205207 16 315 3.2 6.4 0.00 0.00 0.00 41 1011.3
20260502204832 16 90 3.2 14.5 0.00 0.00 0.00 38 1011.4
20260502203734 16 55 3.2 14.5 0.00 0.00 0.00 41 1011.3
20260502203234 16 75 4.8 16.1 0.00 0.00 0.00 38 1011.4
20260502202734 16 304 4.8 16.1 0.00 0.00 0.00 35 1011.4
20260502202233 16 96 3.2 11.3 0.00 0.00 0.00 38 1011.4
20260502201734 16 34 3.2 6.4 0.00 0.00 0.00 37 1011.3
20260502201232 15 30 1.6 8.0 0.00 0.00 0.00 39 1011.3
20260502200734 15 111 3.2 17.7 0.00 0.00 0.00 43 1011.4
20260502200234 15 103 3.2 17.7 0.00 0.00 0.00 38 1011.4
20260502195730 15 63 3.2 12.9 0.00 0.00 0.00 39 1011.5
20260502195231 16 28 3.2 12.9 0.00 0.00 0.00 40 1011.4
20260502194731 15 269 3.2 17.7 0.00 0.00 0.00 38 1011.6
20260502194231 15 110 3.2 17.7 0.00 0.00 0.00 40 1011.6
20260502194211 16 355 4.8 12.9 0.00 0.00 0.00 39 1011.7
20260502193229 15 53 4.8 12.9 0.00 0.00 0.00 39 1011.8
20260502192731 15 346 4.8 16.1 0.00 0.00 0.00 37 1011.8
20260502192227 16 355 4.8 19.3 0.00 0.00 0.00 39 1011.9
20260502191951 16 117 4.8 19.3 0.00 0.00 0.00 39 1011.9
20260502191447 16 19 3.2 12.9 0.00 0.00 0.00 39 1012.0
20260502190716 15 301 3.2 6.4 0.00 0.00 0.00 40 1012.0
20260502190211 15 33 4.8 22.5 0.00 0.00 0.00 41 1012.2
20260502185711 16 106 4.8 22.5 0.00 0.00 0.00 39 1012.3
20260502185432 16 174 3.2 11.3 0.00 0.00 0.00 39 1012.4
20260502184711 17 28 3.2 14.5 0.00 0.00 0.00 38 1012.5
20260502184213 15 94 3.2 14.5 0.00 0.00 0.00 43 1012.6
20260502183714 15 101 1.6 6.4 0.00 0.00 0.00 41 1012.7
20260502183431 14 318 1.6 6.4 0.00 0.00 0.00 43 1012.7
20260502182712 14 209 1.6 8.0 0.00 0.00 0.00 48 1012.9
20260502182212 15 200 3.2 8.0 0.00 0.00 0.00 45 1013.0
20260502181712 14 93 1.6 6.4 0.00 0.00 0.00 45 1013.0
20260502181212 14 253 1.6 6.4 0.00 0.00 0.00 46 1013.1
20260502180707 13 53 1.6 4.8 0.00 0.00 0.00 44 1013.2
20260502180207 13 94 1.6 6.4 0.00 0.00 0.00 44 1013.2
20260502170204 13 80 4.8 14.5 0.00 0.00 0.00 47 1014.0
20260502164201 13 126 3.2 9.7 0.00 0.00 0.00 51 1014.1
20260502163702 13 86 4.8 12.9 0.00 0.00 0.00 52 1014.2
20260502163159 13 355 3.2 12.9 0.00 0.00 0.00 50 1014.2
20260502162700 13 29 1.6 6.4 0.00 0.00 0.00 50 1014.2
20260502162159 12 55 1.6 6.4 0.00 0.00 0.00 55 1014.5
20260502161658 12 315 3.2 11.3 0.00 0.00 0.00 53 1014.4
20260502161417 12 96 4.8 12.9 0.00 0.00 0.00 52 1014.4
20260502160657 12 50 3.2 12.9 0.00 0.00 0.00 52 1014.5
20260502160156 12 100 3.2 11.3 0.00 0.00 0.00 54 1014.3
20260502152154 12 71 3.2 8.0 0.00 0.00 0.00 52 1014.4
20260502151654 12 44 3.2 9.7 0.00 0.00 0.00 53 1014.5
20260502151152 12 90 3.2 9.7 0.00 0.00 0.00 54 1014.4
20260502150653 12 298 3.2 8.0 0.00 0.00 0.00 54 1014.4
20260502150154 11 74 4.8 12.9 0.00 0.00 0.00 56 1014.6
20260502130439 9 21 3.2 11.3 0.00 0.00 0.00 65 1014.3
20260502123403 8 40 4.8 17.7 0.00 0.00 0.00 67 1014.1
20260502122856 9 289 4.8 14.5 0.00 0.00 0.00 67 1014.1
20260502122612 9 355 3.2 12.9 0.00 0.00 0.00 68 1014.2
20260502121844 9 11 3.2 8.0 0.00 0.00 0.00 69 1014.1
20260502121339 8 16 3.2 8.0 0.00 0.00 0.00 69 1014.1
20260502120832 8 95 3.2 8.0 0.00 0.00 0.00 69 1014.0
20260502120326 8 277 3.2 11.3 0.00 0.00 0.00 68 1014.1
20260502115820 8 18 3.2 12.9 0.00 0.00 0.00 68 1014.2
20260502115318 8 64 3.2 12.9 0.00 0.00 0.00 69 1014.2
20260502114808 8 328 3.2 9.7 0.00 0.00 0.00 69 1014.0
20260502114303 8 42 3.2 6.4 0.00 0.00 0.00 70 1014.1
20260502113756 8 80 1.6 9.7 0.00 0.00 0.00 70 1014.2
20260502113514 8 40 3.2 9.7 0.00 0.00 0.00 69 1014.3
20260502112744 8 126 3.2 11.3 0.00 0.00 0.00 69 1014.3
20260502112239 8 49 6.4 17.7 0.00 0.00 0.00 69 1014.2
20260502111732 8 310 4.8 17.7 0.00 0.00 0.00 69 1014.1
20260502111225 8 0 3.2 14.5 0.00 0.00 0.00 70 1014.1
20260502110719 8 236 3.2 8.0 0.00 0.00 0.00 70 1014.1
20260502110216 8 103 3.2 8.0 0.00 0.00 0.00 70 1014.1
20260502105717 8 55 4.8 11.3 0.00 0.00 0.00 70 1014.1
20260502105216 8 130 4.8 11.3 0.00 0.00 0.00 70 1014.1
20260502104936 8 109 3.2 8.0 0.00 0.00 0.00 70 1014.0
20260502104217 8 35 3.2 14.5 0.00 0.00 0.00 71 1014.0
20260502103940 8 238 3.2 14.5 0.00 0.00 0.00 71 1013.8
20260502103217 8 0 3.2 11.3 0.00 0.00 0.00 71 1013.8
20260502102941 8 65 4.8 20.9 0.00 0.00 0.00 71 1013.7
20260502102215 8 39 4.8 20.9 0.00 0.00 0.00 71 1013.6
20260502101939 9 67 4.8 11.3 0.00 0.00 0.00 72 1013.6
20260502101214 9 124 4.8 14.5 0.00 0.00 0.00 72 1013.6
20260502100716 9 5 3.2 14.5 0.00 0.00 0.00 72 1013.5
20260502100214 9 38 3.2 14.5 0.00 0.00 0.00 72 1013.5
20260502091154 9 66 1.6 6.4 0.00 0.00 0.00 77 1012.6
20260502090651 9 64 1.6 9.7 0.00 0.00 0.00 78 1012.5
20260502090151 9 86 3.2 9.7 0.00 0.00 0.00 78 1012.5
20260502071145 10 84 0.0 0.0 0.00 0.00 0.00 85 1012.3
20260502070904 10 84 0.0 0.0 0.00 0.00 0.00 84 1012.4
20260502070143 10 84 0.0 0.0 0.00 0.00 0.00 84 1012.3
20260502065645 10 84 0.0 0.0 0.00 0.00 0.00 84 1012.3
20260502065141 10 84 0.0 0.0 0.00 0.00 0.00 84 1012.3
20260502064638 10 84 0.0 0.0 0.00 0.00 0.00 84 1012.3
20260502064135 10 84 0.0 0.0 0.00 0.00 0.00 84 1012.3
20260502063633 10 84 0.0 0.0 0.00 0.00 0.00 83 1012.4
20260502063133 10 84 0.0 0.0 0.00 0.00 0.00 83 1012.4
20260502062635 10 84 0.0 0.0 0.00 0.00 0.00 83 1012.3
20260502062132 10 84 0.0 1.6 0.00 0.00 0.00 83 1012.2
20260502061630 10 84 0.0 4.8 0.00 0.00 0.00 84 1012.3
20260502061130 11 76 0.0 4.8 0.00 0.00 0.00 83 1012.3
20260502060630 11 355 0.0 1.6 0.00 0.00 0.00 83 1012.2
20260502060614 11 327 0.0 1.6 0.00 0.00 0.00 83 1012.3
20260502055628 11 44 0.0 1.6 0.00 0.00 0.00 84 1012.3
20260502055127 11 42 1.6 4.8 0.00 0.00 0.00 84 1012.3
20260502054625 11 45 1.6 4.8 0.00 0.00 0.00 84 1012.3
20260502054125 11 55 0.0 3.2 0.00 0.00 0.00 84 1012.3
20260502053624 11 55 0.0 3.2 0.00 0.00 0.00 84 1012.2
20260502053123 11 39 0.0 3.2 0.00 0.00 0.00 84 1012.2
20260502052623 11 50 0.0 3.2 0.00 0.00 0.00 84 1012.4
20260502052123 11 50 0.0 1.6 0.00 0.00 0.00 84 1012.5
20260502051620 12 50 0.0 3.2 0.00 0.00 0.00 84 1012.6
20260502051117 12 50 0.0 3.2 0.00 0.00 0.00 84 1012.7
20260502050617 12 94 0.0 0.0 0.00 0.00 0.00 84 1012.6
20260502050114 12 94 0.0 0.0 0.00 0.00 0.00 83 1012.5
20260502045612 12 94 0.0 1.6 0.00 0.00 0.00 83 1012.5
20260502045110 12 94 0.0 3.2 0.00 0.00 0.00 82 1012.4
20260502044608 12 94 0.0 3.2 0.00 0.00 0.00 82 1012.5
20260502044107 12 101 0.0 3.2 0.00 0.00 0.00 82 1012.6
20260502043832 12 94 0.0 3.2 0.00 0.00 0.00 82 1012.6
20260502043103 12 100 0.0 1.6 0.00 0.00 0.00 81 1012.6
20260502042601 12 94 0.0 3.2 0.00 0.00 0.00 81 1012.6
20260502042058 13 94 0.0 3.2 0.00 0.00 0.00 79 1012.7
20260502041559 13 30 0.0 1.6 0.00 0.00 0.00 78 1012.7
20260502041329 13 30 0.0 1.6 0.00 0.00 0.00 77 1012.6
20260502040825 13 30 0.0 1.6 0.00 0.00 0.00 76 1012.5
20260502040057 13 30 0.0 3.2 0.00 0.00 0.00 76 1012.6
20260502035816 13 30 0.0 3.2 0.00 0.00 0.00 74 1012.6
20260502035054 13 319 0.0 3.2 0.00 0.00 0.00 72 1012.5
20260502034552 13 27 0.0 3.2 0.00 0.00 0.00 71 1012.3
20260502034053 13 42 0.0 3.2 0.00 0.00 0.00 69 1012.2
20260502033553 13 44 0.0 3.2 0.00 0.00 0.00 67 1012.0
20260502033047 13 254 0.0 1.6 0.00 0.00 0.00 65 1011.9
20260502032541 13 254 0.0 1.6 0.00 0.00 0.00 66 1011.8
20260502032034 13 254 0.0 3.2 0.00 0.00 0.00 64 1011.7
20260502031529 13 286 0.0 4.8 0.00 0.00 0.00 64 1011.7
20260502031024 13 22 0.0 4.8 0.00 0.00 0.00 63 1011.6
20260502030517 13 248 0.0 4.8 0.00 0.00 0.00 64 1011.5
20260502030012 13 254 1.6 4.8 0.00 0.00 0.00 63 1011.6
20260502025506 13 40 1.6 4.8 0.00 0.00 0.00 63 1011.5
20260502025000 13 242 1.6 4.8 0.00 0.00 0.00 61 1011.4
20260502024454 13 58 0.0 3.2 0.00 0.00 0.00 61 1011.3
20260502023947 13 58 1.6 3.2 0.00 0.00 0.00 61 1011.3
20260502023442 13 82 0.0 3.2 0.00 0.00 0.00 60 1011.1
20260502022935 13 82 1.6 3.2 0.00 0.00 0.00 59 1011.0
20260502022429 13 82 1.6 3.2 0.00 0.00 0.00 59 1010.9
20260502021923 13 82 0.0 3.2 0.00 0.00 0.00 58 1010.8
20260502021637 13 82 0.0 3.2 0.00 0.00 0.00 58 1010.8
20260502021130 13 82 0.0 3.2 0.00 0.00 0.00 58 1010.7
20260502020405 14 82 0.0 3.2 0.00 0.00 0.00 57 1010.7
20260502015900 14 82 0.0 1.6 0.00 0.00 0.00 58 1010.8
20260502015617 14 113 0.0 0.0 0.00 0.00 0.00 58 1010.7
20260502014847 14 113 0.0 0.0 0.00 0.00 0.00 57 1010.6
20260502014341 15 113 0.0 0.0 0.00 0.00 0.00 56 1010.6
20260502013835 15 113 0.0 0.0 0.00 0.00 0.00 55 1010.6
20260502013329 15 113 0.0 0.0 0.00 0.00 0.00 56 1010.5
20260502012823 15 113 0.0 1.6 0.00 0.00 0.00 55 1010.5
20260502012317 15 113 0.0 1.6 0.00 0.00 0.00 53 1010.5
20260502011811 15 113 0.0 1.6 0.00 0.00 0.00 51 1010.3
20260502011305 15 146 0.0 1.6 0.00 0.00 0.00 52 1010.2
20260502011249 15 146 0.0 1.6 0.00 0.00 0.00 53 1010.1
20260502010511 15 150 0.0 0.0 0.00 0.00 0.00 53 1010.0
20260502005747 16 150 0.0 0.0 0.00 0.00 0.00 54 1010.0
20260502005243 16 150 0.0 0.0 0.00 0.00 0.00 53 1010.0
20260502004959 16 150 0.0 0.0 0.00 0.00 0.00 52 1009.9
20260502004230 16 150 0.0 0.0 0.00 0.00 0.00 51 1009.8
20260502003723 16 150 0.0 0.0 0.00 0.00 0.00 51 1009.8
20260502003222 16 150 0.0 0.0 0.00 0.00 0.00 49 1009.7
20260502002945 16 150 0.0 1.6 0.00 0.00 0.00 49 1009.7
20260502002222 16 150 0.0 1.6 0.00 0.00 0.00 47 1009.7
20260502001719 16 150 0.0 0.0 0.00 0.00 0.00 48 1009.5
20260502001218 17 150 0.0 1.6 0.00 0.00 0.00 46 1009.7
20260502000716 17 150 0.0 1.6 0.00 0.00 0.00 46 1009.7
20260502000214 17 150 0.0 0.0 0.00 0.00 0.00 45 1009.6
20260501235712 17 150 0.0 0.0 0.00 0.00 0.00 44 1009.7
20260501235211 17 150 0.0 1.6 0.00 0.00 0.00 43 1009.6
20260501234712 17 150 0.0 1.6 0.00 0.00 0.00 43 1009.5
20260501234210 17 150 0.0 1.6 0.00 0.00 0.00 44 1009.6
20260501233707 18 150 0.0 3.2 0.00 0.00 0.00 41 1009.6
20260501233435 18 150 0.0 3.2 0.00 0.00 0.00 40 1009.6
20260501232934 18 215 0.0 3.2 0.00 0.00 0.00 40 1009.5
20260501232414 18 96 0.0 3.2 0.00 0.00 0.00 40 1009.3
20260501232300 18 143 0.0 3.2 0.00 0.00 0.00 39 1009.4
20260501231206 18 89 0.0 3.2 0.00 0.00 0.00 39 1009.4
20260501230706 18 89 1.6 6.4 0.00 0.00 0.00 38 1009.3
20260501230206 18 111 1.6 6.4 0.00 0.00 0.00 38 1009.4
20260501225700 18 102 3.2 8.0 0.00 0.00 0.00 36 1009.4
20260501225155 18 153 3.2 12.9 0.00 0.00 0.00 35 1009.5
20260501224912 18 240 1.6 12.9 0.00 0.00 0.00 36 1009.5
20260501224402 18 130 1.6 4.8 0.00 0.00 0.00 36 1009.6
20260501223637 19 113 1.6 6.4 0.00 0.00 0.00 36 1009.7
20260501223131 19 130 1.6 6.4 0.00 0.00 0.00 36 1009.7
20260501222624 19 158 1.6 11.3 0.00 0.00 0.00 36 1009.7
20260501222118 19 134 3.2 11.3 0.00 0.00 0.00 36 1009.8
20260501221613 19 146 3.2 11.3 0.00 0.00 0.00 35 1009.8